sat.trackr.live / text

‹ back to catalog

STARLINK-5383

NORAD 54827 · 2022-177H

PAYLOAD ACTIVE UNKNOWN

§ Identity

Operator
Country
US
Launch date
2022-12-28
Launch site
AFETR
Launch vehicle
Mass (kg)
RCS (m²)

Purposes: comms

External: N2YO · Heavens-Above · Gunter

§ Orbital elements

Epoch: 2026-05-25T03:22:56.326080Z

Period
94.27 min
Inclination
43.0021°
Eccentricity
0.0001267
Mean motion
15.27586862 rev/d
Perigee alt
482.2 km
Apogee alt
483.9 km
Semi-major
6,861.2 km
B*
9.1721e-5
RAAN
64.4688°
Arg perigee
249.5274°
Mean anomaly
110.5442°
Rev number
18,861

§ Raw data

STARLINK-53831 54827U 22177H   26145.14092970  .00002263  00000+0  91721-4 0  99912 54827  43.0021  64.4688 0001267 249.5274 110.5442 15.27586862188614

JSON: /api/v1/satellites/54827 · /tle

For live sub-satellite position, see the globe view (requires WebGL).

§ Visibility from observer

Set your observer location to see the next 7 days of passes ≥ 10°. The values pass through the URL so the page stays shareable.

No JS? Fill the form by hand. The geolocation button needs JavaScript.